Home   Weather   Mahón   Past weeks

Flag for Spain Past Weather in Mahón, Menorca, Spain — Yesterday and Last 2 Weeks

Now
55 °F

Cool.


Feels Like: 54 °F
Forecast: 58 / 63 °F
Wind: 5 mph from East

Location: Menorca / Mahon

Current Time: Dec 4, 2016 at 3:06:48 am

Latest Report: Dec 4, 2016 at 2:00 am


Visibility: N/A

Pressure: 30.02 "Hg

Humidity: 90%

Dew Point: 52 °F

Location of MahónLocation

Past Weather in Mahón — Graph

°F

Mahón Temperature Yesterday

Maximum temperature yesterday: 66 °F (at 1:00 pm)
Minimum temperature yesterday: 48 °F (at 12:00 am)
Average temperature yesterday: 57 °F

High & Low Weather Summary for the Past Weeks

 TemperatureHumidityPressure
High71 °F (Nov 22, 12:00 pm)100% (Nov 20, 1:00 am)30.48 "Hg (Nov 20, 1:00 am)
Low46 °F (Dec 2, 12:00 am)45% (Nov 25, 3:00 pm)29.62 "Hg (Nov 23, 5:00 pm)
Average59 °F80%29.97 "Hg
* Reported Nov 19 1:00 am — Dec 4 1:00 am, Mahón, Weather by CustomWeather, © 2016

Note: Actual official high and low records may vary slightly from our data, if they occured in-between our weather recording intervals... More about our weather records

Advertising

Mahón Weather History for the Previous 24 Hours

Scroll right to see more
 ConditionsComfort  
Time TempWeatherWind HumidityBarometerVisibility
1:00 am
Sun, Dec 4
54 °FCool.7 mph91%30.02 "HgN/A
12:00 am55 °FCool.7 mph91%30.03 "HgN/A
11:00 pm
Sat, Dec 3
54 °FCool.5 mph91%30.03 "HgN/A
10:00 pm55 °FPassing clouds.7 mph90%30.03 "Hg12 mi
9:00 pm55 °FCool.7 mph87%30.03 "HgN/A
8:00 pm56 °FCool.3 mph88%30.01 "HgN/A
7:00 pm56 °FPassing clouds.5 mph87%30.01 "Hg12 mi
6:00 pm58 °FCool.6 mph86%29.99 "HgN/A
5:00 pm61 °FCool.6 mph77%29.98 "HgN/A
4:00 pm64 °FPartly sunny.8 mph68%29.97 "Hg11 mi
3:00 pm65 °FMild.9 mph67%29.96 "HgN/A
2:00 pm65 °FPartly sunny.10 mph68%29.97 "Hg11 mi
1:00 pm66 °FScattered clouds.9 mph66%29.98 "Hg11 mi
12:00 pm65 °FMild.8 mph64%30.00 "HgN/A
11:00 am64 °FMild.9 mph72%30.01 "HgN/A
10:00 am63 °FPassing clouds.7 mph80%30.01 "Hg12 mi
9:00 am58 °FCool.6 mph94%30.00 "HgN/A
8:00 am53 °FScattered clouds.8 mph95%29.99 "Hg11 mi
7:00 am51 °FPassing clouds.6 mph95%29.99 "Hg11 mi
6:00 am53 °FCool.7 mph95%29.98 "HgN/A
5:00 am53 °FCool.6 mph94%29.98 "HgN/A
4:00 am53 °FCool.5 mph94%29.98 "HgN/A
3:00 am52 °FCool.5 mph94%29.99 "HgN/A
Weather by CustomWeather, © 2016

See weather overviewHow to use our weather pages